Location: *
(49.1632°S, 165.6926°W)
Time: 03:28:07
(UTC+00:00)

Daily predictions for brighter satellites

Satellite Brightness Start Highest point End
(mag) Time Altitude Azimuth Time Altitude Azimuth Time Altitude Azimuth
Cosmos 1452 Rocket 4.2 03:43:49 10° NW 03:49:02 58° WSW 03:54:19 10° SSE
Cosmos 2058 3.0 03:45:06 10° N 03:49:19 87° WSW 03:53:34 10° S
Cosmos 2100 Rocket 4.4 03:43:20 10° S 03:49:21 42° ESE 03:55:14 10° NE
Envisat 3.1 03:46:35 10° SSE 03:51:47 80° ENE 03:56:55 10° N
Cosmos 2221 2.6 03:50:41 10° S 03:55:10 67° ESE 03:59:34 10° NNE
CZ-2C R/B 3.2 03:51:06 10° SSE 03:55:49 48° E 04:00:37 10° N
Cosmos 1812 4.0 03:53:16 10° SSE 03:56:13 20° ESE 03:59:07 10° ENE
Cosmos 1980 Rocket 2.5 03:51:21 10° SSW 03:56:48 45° SE 04:02:10 10° NE
SJ 16-02 3.0 03:55:33 10° SSE 03:58:04 15° SE 04:00:33 10° E
Cosmos 1842 Rocket 3.7 03:54:23 10° S 03:58:50 57° ESE 04:03:12 10° NNE
Landsat 4 3.9 03:55:46 10° SSE 03:59:38 80° WSW 04:03:27 10° NNW
H-2A R/B 2.8 03:56:43 10° SSE 04:00:38 80° ENE 04:04:32 10° N
Aureole 1 Rocket 4.3 03:57:11 10° SSW 04:04:33 51° ESE 04:10:19 10° NE
Cosmos 2322 Rocket 3.7 04:01:44 10° S 04:05:33 18° SE 04:09:21 10° ESE
SKYMED 2 3.6 04:01:19 10° NNE 04:05:42 79° ESE 04:10:09 10° SSW
DMSP B5D2-2 4.1 04:01:34 10° NNE 04:06:45 61° ESE 04:11:59 10° S
USA 306 2.9 04:05:33 10° WSW 04:09:48 88° NNW 04:14:02 10° ENE
ARIANE 5 R/B 4.4 04:05:24 10° S 04:09:53 29° WSW 04:14:22 10° WNW
Lacrosse 4 Rocket 3.2 04:07:14 10° WNW 04:10:55 27° SW 04:14:43 10° SSE
NOAA 11 4.3 04:05:29 10° SSE 04:10:59 63° E 04:16:26 10° N
GENESIS II 4.1 04:08:30 10° SW 04:12:18 89° ESE 04:16:02 10° NE
Cosmos 2369 3.7 04:06:34 10° SSW 04:12:19 64° ESE 04:17:57 10° NE
Cosmos 2082 Rocket 3.0 04:07:32 10° NNE 04:12:30 33° ENE 04:17:30 10° SE
RESURS DK-1 2.7 04:09:48 10° SSW 04:13:51 44° SE 04:17:52 10° NE
Cosmos 1697 Rocket 2.9 04:08:59 10° SSW 04:14:43 81° WNW 04:20:24 10° NNE
USA 307 2.9 04:10:48 10° WSW 04:15:04 90° E 04:19:18 10° ENE
Cosmos 2333 Rocket 4.1 04:13:34 10° S 04:15:45 12° SSE 04:17:56 10° SE
USA 215 3.3 04:09:40 10° ENE 04:16:14 69° SSE 04:22:50 10° SW
Cosmos 2061 Rocket 4.5 04:12:34 10° S 04:18:33 38° ESE 04:24:24 10° NE
H-2A R/B 3.3 04:15:10 10° SE 04:18:37 18° E 04:22:01 10° NE
Cosmos 1725 Rocket 4.4 04:13:20 10° S 04:19:14 39° ESE 04:25:06 10° NE
CZ-4B R/B 4.1 04:18:46 10° S 04:23:36 55° WSW 04:28:17 10° NW
Lacrosse 5 2.6 04:18:54 10° WSW 04:23:42 37° SSE 04:27:34 15° ESE
Cosmos 2219 Rocket 4.1 04:23:55 10° S 04:25:27 11° SSE 04:26:58 10° SE
ADEOS 4.3 04:24:11 10° SSE 04:28:59 33° E 04:33:43 10° NNE
ERBS 2.6 04:26:04 10° SW 04:29:06 40° SSE 04:31:00 19° E
Cosmos 1340 Rocket 2.9 04:29:32 10° NNW 04:33:36 81° WSW 04:37:45 10° S
Cosmos 1000 Rocket 4.5 04:30:44 10° N 04:36:51 69° E 04:43:07 10° SSE
Meteor 1-31 Rocket 2.7 04:34:22 10° SSE 04:38:24 76° ENE 04:42:21 10° N
BREEZE M DEB (TANK) 3.5 04:37:51 10° NNW 04:39:31 20° NE 04:40:10 18° ENE
Cosmos 2151 3.0 04:37:05 10° N 04:41:23 66° E 04:45:44 10° SSE
Cosmos 1607 4.3 04:38:04 10° NW 04:44:19 66° SW 04:50:16 12° SE
USA 308 3.3 04:41:44 10° WSW 04:45:56 62° NNW 04:50:06 10° NE
SL-16 R/B 2.8 04:42:18 10° SSW 04:47:32 34° SE 04:51:25 16° ENE
CBERS 1 LM4 rocket 4.3 04:45:21 10° SSE 04:50:13 75° ENE 04:55:09 10° N
COSMO-SKYMED 1 4.4 04:49:49 10° NNW 04:53:51 35° W 04:57:57 10° SSW
COSMOS 2406 3.2 04:48:22 10° NNW 04:54:04 89° NE 04:59:24 12° SSE
Landsat 5 3.5 04:51:25 10° NNE 04:55:53 78° ESE 05:00:14 10° SSW
Cosmos 1777 Rocket 4.4 04:52:30 10° SSW 04:57:31 41° ESE 05:02:00 12° NE
Cosmos 2173 Rocket 4.3 04:52:31 10° SSW 04:58:55 72° W 05:05:11 10° N
Cosmos 1782 3.2 04:56:06 10° SSW 05:00:07 66° W 05:04:03 10° N
Cosmos 2016 Rocket 3.9 04:55:25 10° S 05:01:43 82° E 05:08:03 10° N
Cosmos 1833 Rocket 3.4 04:56:28 10° NW 05:02:01 54° SW 05:07:40 10° SSE
Cosmos 1354 Rocket 3.9 04:58:28 10° SSW 05:03:46 66° ESE 05:09:01 10° NNE
Cosmos 1328 Rocket 4.4 04:59:56 10° S 05:03:12 29° SE 05:03:12 29° SE
SeaSat 1 4.2 05:00:15 10° SSE 05:04:25 27° SW 05:08:33 10° W
USA 305 4.2 05:03:10 10° WSW 05:07:07 39° NW 05:11:02 10° NNE
Cosmos 1992 Rocket 4.0 05:02:34 10° NNW 05:07:50 89° WSW 05:12:24 14° SSE
Cosmos 2233 Rocket 4.0 05:01:40 10° S 05:07:55 58° ESE 05:14:09 10° NNE
Cosmos 2360 Rocket 3.1 05:04:14 10° SSW 05:09:01 27° SE 05:09:28 26° SE
SMAP 3.3 05:06:12 20° SSE 05:09:16 49° E 05:13:49 10° N
Cosmos 1939 Rocket 2.8 05:05:48 10° SSE 05:09:41 83° WSW 05:13:35 10° NNW
Cosmos 2278 3.7 05:04:21 10° SSW 05:10:07 89° ESE 05:15:49 10° NNE
Lacrosse 5 rocket 1.9 05:08:22 10° SW 05:12:09 35° SSE 05:12:32 34° SSE
Meteor 1-10 Rocket 4.3 05:08:25 10° S 05:14:05 54° ESE 05:19:35 10° NNE
Cosmos 1864 Rocket 4.5 05:09:19 10° S 05:15:35 85° W 05:21:46 10° N
Cosmos 1151 Rocket 3.0 05:12:22 10° S 05:16:48 60° ESE 05:21:09 10° NNE
Meteor PRIRODA 3.5 05:16:58 38° SSE 05:18:18 73° ENE 05:22:01 10° N
Meteor 1-27 Rocket 4.1 05:15:39 10° S 05:20:55 40° ESE 05:22:24 33° ENE
SL-08 R/B 4.5 05:15:12 10° S 05:21:32 85° W 05:27:42 10° N
USA 281 3.4 05:21:17 24° SE 05:25:16 52° ENE 05:31:41 10° N
Orbus 7S? 3.0 05:25:04 10° SW 05:28:30 60° SSW 05:28:30 60° SSW
CZ-2D R/B 3.2 05:30:12 66° ENE 05:30:12 66° ENE 05:33:55 10° N
ARGOS 3.4 05:30:54 43° E 05:31:10 43° E 05:36:18 10° N
Cosmos 1812 4.2 05:28:24 10° SSW 05:32:02 38° W 05:35:38 10° NNW
CZ-4B R/B 2.6 05:34:47 67° SSE 05:35:17 89° W 05:39:11 10° NNW
SJ 16-02 1.2 05:32:50 10° SSW 05:37:20 89° SE 05:39:38 28° NNE
Cosmos 1980 Rocket 3.8 05:35:36 10° SW 05:40:41 36° WNW 05:45:45 10° N
Meteor 2-6 Rocket 4.4 05:35:07 10° SSW 05:40:46 71° W 05:46:13 10° N
CZ-4C R/B 3.9 05:41:44 10° N 05:44:54 46° W 05:48:11 10° SSW
H-2A R/B 3.8 05:52:26 23° S 05:52:26 23° S 05:54:15 10° S
Cosmos 2322 Rocket 2.1 05:45:02 10° SSW 05:50:47 66° ESE 05:51:24 61° E
Cosmos 1900 4.3 05:49:12 10° SW 05:54:06 79° NW 05:54:57 60° NNE
Cosmos 2082 Rocket 3.0 05:50:56 10° NW 05:56:24 48° SW 05:59:35 24° S
H-2A R/B 2.2 05:55:24 23° S 05:58:33 66° WSW 06:03:26 10° NNW
USA 215 4.0 05:53:47 14° NNE 05:59:25 51° NW 06:05:52 10° WSW
Cosmos 2333 Rocket 3.4 05:56:33 10° SSW 05:59:59 29° S 05:59:59 29° S
Cosmos 1766 Rocket 4.2 06:01:37 10° NNW 06:04:50 48° NNW 06:04:50 48° NNW
IRIDIUM 104 4.3 06:01:08 10° N 06:06:24 81° W 06:09:31 26° S
Lacrosse 5 1.9 06:02:04 10° SW 06:06:47 73° SSW 06:06:47 73° SSW
CORIOLIS 4.5 06:05:10 22° S 06:08:46 67° WSW 06:14:12 10° NNW
Cosmos 2219 Rocket 3.7 06:06:13 10° SSW 06:08:49 23° S 06:08:49 23° S
Cosmos 2084 4.2 06:12:30 10° NW 06:16:41 59° W 06:16:41 59° W
Radarsat Rocket 4.5 06:11:40 18° SSE 06:17:24 86° ENE 06:25:36 10° NNW
Cosmos 1867 4.1 06:19:51 10° SW 06:23:54 51° SSW 06:23:54 51° SSW
SL-16 R/B 2.9 06:26:20 10° SW 06:31:51 50° WNW 06:33:22 40° NNW
Lacrosse 5 rocket 4.2 06:47:30 10° WSW 06:48:05 14° WSW 06:48:05 14° WSW
Cosmos 2360 Rocket 3.4 06:47:53 10° SSW 06:51:15 37° SW 06:51:15 37° SW
USA 281 4.2 07:08:10 37° SSW 07:09:38 42° SW 07:15:46 10° WNW
Cosmos 2322 Rocket 4.3 07:29:53 10° SW 07:33:16 22° W 07:33:16 22° W
